DELTA 1 DEB, 7489

Orbit data source: Space-Track

DELTA 1 DEB, 7489 is space debris in SSO originally from a launch on Tue, 06 Nov 1973 UTC launched from the Air Force Western Test Range (AFWTR). Debris objects in space refer to the collection of defunct objects orbiting the Earth. Examples of debris include non-operational satellites, rocket bodies, and fragments generated from explosions, collisions, or faulty payload assembly.

Loading next visibility...
Identifier
7489, 1973-086FV
Orbit
SSO
Country
Flag of USUS
Related business
Manufacturer
Unknown
Mission
Spacecraft
Bus & Motor
Unknown
Mass
Unknown
Launch date (UTC)
1973-11-06 (52 years ago)
Launch vehicle
Unknown
Launch site
Air Force Western Test Range (AFWTR)
Object type
Payload
Rocket body
Debris
Shape & HBR
Unknown shape, 0.1 m
Radar Cross Section
Small (<0.1 m²)

Expand to show TLE details & history
Last TLE update: 19 hours ago

TLE from 19 hours ago
0 DELTA 1 DEB
1 07489U 73086FV  25291.98817929  .00000020  00000-0  55838-3 0  9998
2 07489 102.5514 307.1208 0061026  41.7715 347.8352 12.29719999329676
Epoch: 2025-10-18T23:42Z
TLE epoch observation values (Epoch: 2025-10-18T23:42:58.690Z)
Latitude
28.73246°
Longitude
-83.31121°
Altitude
1,506.403 km
Speed
7.135 km/s
True Right ascension
20h 00m 34s
True Declination
28° 36' 05"
Sunlit
Object was in daylight at epoch
Visualization orbit readout
Latitude
Unknown
Longitude
Unknown
Altitude
Unknown
Speed
Unknown
Apparent Right ascension
Unknown
Apparent Declination
Unknown
Sunlit
N/A
Visualization observer readout
Local Sidereal Time
13:37:38
Azimuth
Unknown
Elevation
Unknown
Doppler factor
Unknown
Orbital elements
Apogee altitude
1,596.477 km
Perigee altitude
1,499.735 km
Semi-major axis
7,926.243 km
Eccentricity
0.0061
Inclination
102.5514°
RAAN
307.1208°
Arg. of periapsis
41.7715°
True anomaly
347.68673°
Mean anomaly
347.8352°
Eccentric anomaly
347.76108°
Mean motion
3.07569 °/min
Orbital period
117.05 mins
BSTAR
0.00055838
Loading maneuver chart data...
Computing Atmospheric mass density...
Loading historical data...
Loading historical data...
Loading historical data...
Loading historical data...
Loading historical data...
Loading historical data...
Loading historical data...

Documentation

Showing up to 5 results
|